Monroe, WI

7:19 AM CDT on October 15, 2019 (GMT -0500)
Monroe Municipal

Weather History for KEFT - August, 2019

Change the Weather History Date:

Monday, August 12, 2019

  Actual Average Record
Temperature  
Mean Temperature 69 °F -  
Max Temperature 73 °F 83 °F 91 °F (2010)
Min Temperature 65 °F 52 °F 24 °F (1998)
Cooling Degree Days 4    
Growing Degree Days 19 (Base 50)    
Moisture  
Dew Point 68 °F    
Average Humidity 94    
Maximum Humidity 98    
Minimum Humidity 84    
Precipitation  
Precipitation 0.15 in - - ()
Sea Level Pressure  
Sea Level Pressure 29.90 in    
Wind  
Wind Speed 2 mph (ENE)    
Max Wind Speed 9 mph    
Max Gust Speed -    
Visibility 6 miles    
Events Fog , Rain    
Averages and records for this station are not official NWS values.
T = Trace of Precipitation, MM = Missing Value Source: NWS Daily Summary

Daily Weather History Graph

Daily Weather History Graph

Search for Another Location

Airport or City:

Astronomy

Aug. 12, 2019 Rise Set
Actual Time 6:01 AM CDT 8:04 PM CDT
Civil Twilight 5:30 AM CDT 8:35 PM CDT
Nautical Twilight 4:53 AM CDT 9:12 PM CDT
Astronomical Twilight 4:11 AM CDT 9:53 PM CDT
Moon 6:37 PM CDT (8/12) 3:07 AM CDT (8/12)
Length of Visible Light 15h 04m
Length of Day
14h 02m
Waxing Gibbous, 93% of the Moon is Illuminated
Aug 12
Waxing Gibbous
Aug 15
Full
Aug 23
Last Quarter
Aug 30
New
Sep 5
First Quarter

Hourly Weather History & Observations

Time (CDT) Temp. Dew Point Humidity Pressure Visibility Wind Dir Wind Speed Gust Speed Precip Events Conditions
12:15 AM 69.3 °F 68.2 °F 96% 29.96 in 10.0 mi Calm Calm - N/A   Overcast
12:35 AM 70.0 °F 68.4 °F 95% 29.96 in 7.0 mi Calm Calm - N/A   Overcast
1:15 AM 69.8 °F 68.9 °F 97% 29.96 in 7.0 mi Calm Calm - N/A   Overcast
1:35 AM 69.8 °F 68.7 °F 96% 29.97 in 10.0 mi Calm Calm - N/A   Overcast
1:55 AM 70.2 °F 68.7 °F 95% 29.97 in 10.0 mi Calm Calm - N/A   Overcast
2:15 AM 70.0 °F 68.0 °F 93% 29.95 in 10.0 mi Calm Calm - N/A   Scattered Clouds
2:35 AM 69.8 °F 68.4 °F 95% 29.95 in 10.0 mi Calm Calm - N/A   Clear
2:55 AM 70.0 °F 68.2 °F 94% 29.95 in 10.0 mi Calm Calm - N/A   Clear
3:15 AM 69.4 °F 67.5 °F 93% 29.94 in 10.0 mi Calm Calm - N/A   Clear
3:55 AM 66.6 °F 65.3 °F 96% 29.92 in 0.2 mi NE 3.5 mph - N/A Fog Fog
4:15 AM 66.4 °F 65.5 °F 97% 29.92 in 0.2 mi SSW 3.5 mph - N/A Fog Fog
4:35 AM 66.7 °F 65.8 °F 97% 29.93 in 1.8 mi Calm Calm - N/A   Overcast
4:55 AM 66.7 °F 65.8 °F 97% 29.92 in 1.0 mi Calm Calm - N/A   Overcast
5:15 AM 65.3 °F 64.4 °F 97% 29.91 in 0.8 mi Calm Calm - N/A   Overcast
5:35 AM 65.3 °F 64.4 °F 97% 29.92 in 0.8 mi NNE 3.5 mph - N/A   Overcast
5:55 AM 65.1 °F 64.4 °F 98% 29.92 in 0.2 mi NNE 3.5 mph - N/A Fog Fog
6:15 AM 65.5 °F 64.8 °F 98% 29.93 in 0.2 mi NNE 5.8 mph - N/A Fog Fog
6:35 AM 65.5 °F 64.8 °F 98% 29.93 in 0.2 mi North 4.6 mph - N/A Fog Fog
6:55 AM 65.7 °F 65.1 °F 98% 29.93 in 0.2 mi NE 4.6 mph - N/A Fog Fog
7:15 AM 66.9 °F 66.2 °F 98% 29.95 in 1.8 mi Calm Calm - N/A   Overcast
7:35 AM 67.3 °F 66.6 °F 98% 29.95 in 3.0 mi Calm Calm - N/A   Overcast
7:55 AM 68.0 °F 67.1 °F 97% 29.95 in 3.0 mi ENE 4.6 mph - N/A   Overcast
8:15 AM 68.2 °F 67.5 °F 98% 29.95 in 1.2 mi NE 4.6 mph - N/A   Overcast
8:35 AM 68.5 °F 68.0 °F 98% 29.95 in 0.8 mi East 3.5 mph - N/A   Overcast
8:55 AM 68.4 °F 67.6 °F 98% 29.95 in 1.2 mi East 5.8 mph - N/A   Overcast
9:15 AM 68.5 °F 68.0 °F 98% 29.95 in 1.5 mi East 3.5 mph - N/A   Overcast
9:35 AM 69.4 °F 68.7 °F 98% 29.95 in 4.0 mi SE 3.5 mph - N/A   Overcast
9:55 AM 70.5 °F 68.7 °F 94% 29.95 in 7.0 mi ESE 5.8 mph - N/A   Overcast
10:15 AM 71.4 °F 68.7 °F 91% 29.94 in 7.0 mi ESE 5.8 mph - N/A   Overcast
10:35 AM 71.6 °F 68.4 °F 89% 29.93 in 10.0 mi East 4.6 mph - N/A   Overcast
10:55 AM 72.1 °F 68.9 °F 89% 29.91 in 10.0 mi East 8.1 mph - N/A   Overcast
11:15 AM 72.7 °F 68.9 °F 88% 29.89 in 10.0 mi East 5.8 mph - N/A   Overcast
11:35 AM 72.7 °F 69.1 °F 88% 29.86 in 10.0 mi East 9.2 mph - N/A   Overcast
11:55 AM 73.0 °F 69.3 °F 88% 29.87 in 10.0 mi ENE 4.6 mph - N/A   Mostly Cloudy
12:15 PM 73.4 °F 69.1 °F 86% 29.87 in 10.0 mi ENE 5.8 mph - N/A   Mostly Cloudy
12:35 PM 73.4 °F 69.4 °F 87% 29.86 in 10.0 mi ENE 6.9 mph - N/A Rain Light Rain
12:55 PM 73.4 °F 69.8 °F 88% 29.88 in 10.0 mi East 4.6 mph - N/A Rain Rain
1:15 PM 73.2 °F 70.0 °F 90% 29.91 in 7.0 mi Calm Calm - N/A Rain Rain
1:35 PM 73.0 °F 70.3 °F 91% 29.90 in 5.0 mi Calm Calm - 0.01 in Rain Rain
1:55 PM 72.9 °F 70.7 °F 93% 29.90 in 5.0 mi NE 3.5 mph - 0.03 in Rain Rain
2:15 PM 73.0 °F 71.2 °F 94% 29.88 in 7.0 mi East 4.6 mph - N/A Rain Rain
2:35 PM 73.4 °F 71.4 °F 93% 29.88 in 7.0 mi Calm Calm - 0.01 in   Light Drizzle
2:55 PM 73.6 °F 71.1 °F 92% 29.88 in 10.0 mi East 3.5 mph - 0.01 in   Light Drizzle
3:15 PM 73.6 °F 71.2 °F 92% 29.87 in 7.0 mi SE 3.5 mph - N/A Rain Rain
3:35 PM 73.4 °F 70.9 °F 92% 29.87 in 10.0 mi Calm Calm - 0.01 in   Overcast
3:55 PM 73.6 °F 71.6 °F 93% 29.87 in 7.0 mi Calm Calm - 0.01 in   Drizzle
4:15 PM 73.4 °F 71.2 °F 93% 29.86 in 7.0 mi NE 4.6 mph - N/A   Drizzle
4:35 PM 73.4 °F 71.2 °F 93% 29.86 in 7.0 mi Calm Calm - N/A   Drizzle
4:55 PM 73.4 °F 71.4 °F 93% 29.86 in 5.0 mi Calm Calm - 0.01 in   Drizzle
5:15 PM 73.0 °F 68.7 °F 86% 29.86 in 7.0 mi Calm Calm - 0.01 in   Drizzle
5:35 PM 72.9 °F 67.6 °F 84% 29.86 in 10.0 mi Calm Calm - 0.01 in   Light Drizzle
5:55 PM 73.0 °F 67.8 °F 84% 29.86 in 10.0 mi SSW 3.5 mph - 0.01 in   Overcast
6:15 PM 70.9 °F 67.5 °F 89% 29.86 in 4.0 mi South 3.5 mph - N/A   Drizzle
6:35 PM 69.8 °F 67.5 °F 92% 29.85 in 5.0 mi SE 3.5 mph - 0.01 in   Drizzle
6:55 PM 69.8 °F 68.0 °F 94% 29.86 in 5.0 mi Calm Calm - 0.01 in   Drizzle
7:35 PM 69.3 °F 67.5 °F 94% 29.85 in 5.0 mi Calm Calm - 0.01 in   Drizzle
7:55 PM 69.1 °F 66.6 °F 92% 29.85 in 5.0 mi Calm Calm - 0.02 in   Drizzle
8:15 PM 69.1 °F 66.9 °F 93% 29.85 in 4.0 mi Calm Calm - 0.01 in   Drizzle
8:35 PM 68.5 °F 67.1 °F 95% 29.85 in 4.0 mi NE 3.5 mph - 0.03 in   Heavy Drizzle
8:55 PM 68.5 °F 67.3 °F 96% 29.85 in 5.0 mi ENE 4.6 mph - 0.04 in   Drizzle
9:15 PM 68.5 °F 67.5 °F 96% 29.85 in 5.0 mi NE 4.6 mph - 0.01 in   Overcast
9:35 PM 68.5 °F 67.5 °F 96% 29.84 in 4.0 mi NE 4.6 mph - 0.01 in   Drizzle
9:55 PM 68.5 °F 67.6 °F 97% 29.83 in 0.5 mi NE 5.8 mph - 0.01 in Fog Fog
10:15 PM 68.4 °F 67.5 °F 97% 29.83 in 4.0 mi NE 5.8 mph - N/A   Overcast
10:35 PM 68.2 °F 67.3 °F 97% 29.83 in 10.0 mi ENE 4.6 mph - N/A   Overcast
10:55 PM 68.4 °F 67.5 °F 97% 29.83 in 10.0 mi North 3.5 mph - N/A   Overcast
11:15 PM 68.4 °F 67.3 °F 96% 29.83 in 10.0 mi North 4.6 mph - N/A   Overcast
11:35 PM 68.5 °F 67.5 °F 96% 29.83 in 10.0 mi North 3.5 mph - N/A   Overcast
11:55 PM 68.4 °F 67.3 °F 96% 29.83 in 10.0 mi NNE 3.5 mph - N/A   Overcast